Bend, OR

3:47 PM PDT on August 24, 2016 (GMT -0700)
Bend Municipal

Weather History for KBDN - February, 2013

Change the Weather History Date:

Wednesday, February 27, 2013

  Actual Average (KRDM) Record (KRDM)
Temperature  
Mean Temperature 36 °F 37 °F  
Max Temperature 46 °F 50 °F 63 °F (1967)
Min Temperature 26 °F 24 °F -12 °F (1960)
Degree Days  
Heating Degree Days 29 28  
Month to date heating degree days 806  
Since 1 July heating degree days 4646  
Cooling Degree Days 0 0  
Month to date cooling degree days 0  
Year to date cooling degree days 0  
Moisture  
Dew Point 11 °F    
Average Humidity 34    
Maximum Humidity 51    
Minimum Humidity 23    
Precipitation  
Precipitation 0.00 in 0.02 in 0.27 in (2006)
Month to date precipitation 0.63  
Year to date precipitation 1.60  
Sea Level Pressure  
Sea Level Pressure 30.24 in    
Wind  
Wind Speed 7 mph (SSW)    
Max Wind Speed 15 mph    
Max Gust Speed 20 mph    
Visibility 10 miles    
Events      
T = Trace of Precipitation, MM = Missing Value Source: NWS Daily Summary

Daily Weather History Graph

Daily Weather History Graph

Search for Another Location

Airport or City:

Trip Planner

Search our weather history database for the weather conditions in past years. The results will help you decide how hot, cold, wet, or windy it might be!

Date:

Astronomy

Feb. 27, 2013 Rise Set
Actual Time 6:44 AM PST 5:50 PM PST
Civil Twilight 6:15 AM PST 6:20 PM PST
Nautical Twilight 5:42 AM PST 6:53 PM PST
Astronomical Twilight 5:08 AM PST 7:27 PM PST
Moon 8:25 PM PST (2/27) 7:16 AM PST (2/27)
Length of Visible Light 12h 04m
Length of Day
11h 06m
Waning Gibbous, 96% of the Moon is Illuminated
Feb 27
Waning Gibbous
Mar 4
Last Quarter
Mar 11
New
Mar 19
First Quarter
Mar 27
Full

Hourly Weather History & Observations

Time (PST) Temp. Windchill Dew Point Humidity Pressure Visibility Wind Dir Wind Speed Gust Speed Precip Events Conditions
12:15 AM 32.0 °F 27.5 °F 3.2 °F 30% 30.21 in 10.0 mi SSW 4.6 mph - N/A   Clear
12:35 AM 32.0 °F 24.8 °F 5.0 °F 32% 30.21 in 10.0 mi SSW 8.1 mph - N/A   Clear
12:55 AM 33.8 °F 24.8 °F 5.0 °F 30% 30.21 in 10.0 mi SSW 12.7 mph - N/A   Clear
1:15 AM 33.8 °F 25.8 °F 5.0 °F 30% 30.21 in 10.0 mi SSW 10.4 mph - N/A   Clear
1:35 AM 33.8 °F 24.8 °F 5.0 °F 30% 30.21 in 10.0 mi SSW 12.7 mph - N/A   Clear
1:55 AM 33.8 °F 25.8 °F 5.0 °F 30% 30.21 in 10.0 mi SSW 10.4 mph - N/A   Clear
2:15 AM 32.0 °F 25.6 °F 5.0 °F 32% 30.21 in 10.0 mi SSW 6.9 mph - N/A   Clear
2:35 AM 32.0 °F 24.2 °F 5.0 °F 32% 30.21 in 10.0 mi SSW 9.2 mph - N/A   Clear
2:55 AM 32.0 °F 26.4 °F 5.0 °F 32% 30.21 in 10.0 mi SSW 5.8 mph - N/A   Clear
3:15 AM 32.0 °F 25.6 °F 3.2 °F 30% 30.21 in 10.0 mi SW 6.9 mph - N/A   Clear
3:35 AM 33.8 °F 26.4 °F 3.2 °F 28% 30.20 in 10.0 mi SW 9.2 mph - N/A   Clear
3:55 AM 33.8 °F 28.6 °F 3.2 °F 28% 30.21 in 10.0 mi SSW 5.8 mph - N/A   Clear
4:15 AM 30.2 °F - 6.8 °F 37% 30.21 in 10.0 mi Calm Calm - N/A   Clear
4:35 AM 28.4 °F - 6.8 °F 40% 30.22 in 10.0 mi Calm Calm - N/A   Clear
4:55 AM 33.8 °F 29.6 °F 1.4 °F 25% 30.22 in 10.0 mi West 4.6 mph - N/A   Clear
5:15 AM 32.0 °F - 5.0 °F 32% 30.22 in 10.0 mi Calm Calm - N/A   Clear
5:35 AM 32.0 °F - 5.0 °F 32% 30.23 in 10.0 mi Calm Calm - N/A   Clear
5:55 AM 28.4 °F 23.3 °F 6.8 °F 40% 30.23 in 10.0 mi ESE 4.6 mph - N/A   Clear
6:15 AM 28.4 °F 22.2 °F 8.6 °F 43% 30.22 in 10.0 mi ESE 5.8 mph - N/A   Clear
6:35 AM 26.6 °F 19.1 °F 8.6 °F 47% 30.22 in 10.0 mi ESE 6.9 mph - N/A   Clear
6:55 AM 26.6 °F 19.1 °F 10.4 °F 51% 30.22 in 10.0 mi ESE 6.9 mph - N/A   Clear
7:15 AM 28.4 °F - 10.4 °F 47% 30.23 in 10.0 mi Calm Calm - N/A   Clear
7:35 AM 28.4 °F - 10.4 °F 47% 30.23 in 10.0 mi Calm Calm - N/A   Clear
7:55 AM 28.4 °F - 10.4 °F 47% 30.24 in 10.0 mi Calm Calm - N/A   Clear
8:15 AM 30.2 °F 26.7 °F 10.4 °F 44% 30.26 in 10.0 mi East 3.5 mph - N/A   Clear
8:35 AM 32.0 °F - 10.4 °F 41% 30.27 in 10.0 mi Calm Calm - N/A   Clear
8:55 AM 32.0 °F 27.5 °F 8.6 °F 38% 30.27 in 10.0 mi SE 4.6 mph - N/A   Clear
9:15 AM 33.8 °F - 10.4 °F 38% 30.27 in 10.0 mi Calm Calm - N/A   Clear
9:35 AM 35.6 °F - 8.6 °F 33% 30.27 in 10.0 mi Calm Calm - N/A   Clear
9:55 AM 35.6 °F - 10.4 °F 35% 30.28 in 10.0 mi Calm Calm - N/A   Partly Cloudy
10:15 AM 37.4 °F 33.8 °F 10.4 °F 33% 30.27 in 10.0 mi ESE 4.6 mph - N/A   Partly Cloudy
10:35 AM 39.2 °F 33.6 °F 5.0 °F 24% 30.28 in 10.0 mi SSW 8.1 mph - N/A   Clear
10:55 AM 41.0 °F 33.9 °F 5.0 °F 23% 30.28 in 10.0 mi SW 12.7 mph 17.3 mph N/A   Clear
11:15 AM 41.0 °F 34.7 °F 8.6 °F 26% 30.27 in 10.0 mi South 10.4 mph 18.4 mph N/A   Clear
11:35 AM 42.8 °F 36.6 °F 10.4 °F 27% 30.26 in 10.0 mi SW 11.5 mph - N/A   Partly Cloudy
11:55 AM 44.6 °F 38.1 °F 10.4 °F 25% 30.25 in 10.0 mi South 13.8 mph - N/A   Clear
12:15 PM 46.4 °F 40.7 °F 12.2 °F 25% 30.24 in 10.0 mi South 12.7 mph - N/A   Clear
12:35 PM 46.4 °F 41.5 °F 14.0 °F 27% 30.24 in 10.0 mi SW 10.4 mph 17.3 mph N/A   Partly Cloudy
12:55 PM 46.4 °F 41.5 °F 15.8 °F 29% 30.24 in 10.0 mi SW 10.4 mph - N/A   Partly Cloudy
1:15 PM 46.4 °F 40.1 °F 17.6 °F 32% 30.24 in 10.0 mi WSW 15.0 mph - N/A   Partly Cloudy
1:35 PM 46.4 °F 40.4 °F 15.8 °F 29% 30.25 in 10.0 mi SW 13.8 mph - N/A   Partly Cloudy
1:55 PM 46.4 °F 40.4 °F 15.8 °F 29% 30.24 in 10.0 mi SSW 13.8 mph - N/A   Partly Cloudy
2:15 PM 44.6 °F 38.8 °F 17.6 °F 34% 30.24 in 10.0 mi WSW 11.5 mph - N/A   Partly Cloudy
2:35 PM 46.4 °F 40.1 °F 15.8 °F 29% 30.23 in 10.0 mi SSW 15.0 mph 19.6 mph N/A   Partly Cloudy
2:55 PM 46.4 °F 40.7 °F 17.6 °F 32% 30.24 in 10.0 mi WSW 12.7 mph - N/A   Partly Cloudy
3:15 PM 46.4 °F 41.1 °F 19.4 °F 34% 30.24 in 10.0 mi West 11.5 mph - N/A   Partly Cloudy
3:35 PM 46.4 °F 42.9 °F 19.4 °F 34% 30.24 in 10.0 mi West 6.9 mph - N/A   Scattered Clouds
3:55 PM 46.4 °F 41.5 °F 19.4 °F 34% 30.24 in 10.0 mi West 10.4 mph - N/A   Partly Cloudy
4:15 PM 46.4 °F 43.5 °F 19.4 °F 34% 30.23 in 10.0 mi West 5.8 mph - N/A   Partly Cloudy
4:35 PM 46.4 °F 42.9 °F 15.8 °F 29% 30.23 in 10.0 mi WSW 6.9 mph - N/A   Partly Cloudy
4:55 PM 46.4 °F 42.4 °F 15.8 °F 29% 30.23 in 10.0 mi WSW 8.1 mph - N/A   Mostly Cloudy
5:15 PM 46.4 °F 44.3 °F 17.6 °F 32% 30.23 in 10.0 mi SW 4.6 mph - N/A   Overcast
5:35 PM 44.6 °F - 17.6 °F 34% 30.23 in 10.0 mi Calm Calm - N/A   Overcast
6:15 PM 44.6 °F - 19.4 °F 37% 30.23 in 10.0 mi Calm Calm - N/A   Overcast
6:35 PM 41.0 °F 39.0 °F 19.4 °F 42% 30.24 in 10.0 mi SSW 3.5 mph - N/A   Overcast
6:55 PM 42.8 °F 39.3 °F 17.6 °F 36% 30.24 in 10.0 mi SW 5.8 mph - N/A   Overcast
7:15 PM 44.6 °F 40.7 °F 8.6 °F 23% 30.25 in 10.0 mi SW 6.9 mph - N/A   Overcast
7:35 PM 42.8 °F 38.6 °F 8.6 °F 25% 30.24 in 10.0 mi SW 6.9 mph - N/A   Scattered Clouds
7:55 PM 42.8 °F 38.6 °F 10.4 °F 27% 30.25 in 10.0 mi SW 6.9 mph - N/A   Clear
8:15 PM 42.8 °F 40.1 °F 12.2 °F 29% 30.25 in 10.0 mi SW 4.6 mph - N/A   Scattered Clouds
8:35 PM 41.0 °F 36.4 °F 14.0 °F 33% 30.23 in 10.0 mi SSW 6.9 mph - N/A   Scattered Clouds
8:55 PM 41.0 °F 35.8 °F 14.0 °F 33% 30.24 in 10.0 mi SSW 8.1 mph - N/A   Partly Cloudy
9:15 PM 41.0 °F 36.4 °F 15.8 °F 36% 30.24 in 10.0 mi SSW 6.9 mph - N/A   Scattered Clouds
9:35 PM 41.0 °F 35.2 °F 15.8 °F 36% 30.26 in 10.0 mi South 9.2 mph - N/A   Mostly Cloudy
9:55 PM 41.0 °F 34.7 °F 15.8 °F 36% 30.25 in 10.0 mi South 10.4 mph - N/A   Mostly Cloudy
10:15 PM 41.0 °F 35.2 °F 15.8 °F 36% 30.26 in 10.0 mi South 9.2 mph - N/A   Mostly Cloudy
10:35 PM 41.0 °F 35.8 °F 15.8 °F 36% 30.25 in 10.0 mi SSE 8.1 mph - N/A   Mostly Cloudy
10:55 PM 41.0 °F 35.2 °F 17.6 °F 39% 30.25 in 10.0 mi South 9.2 mph - N/A   Scattered Clouds
11:15 PM 41.0 °F 35.2 °F 17.6 °F 39% 30.25 in 10.0 mi South 9.2 mph - N/A   Scattered Clouds
11:35 PM 39.2 °F 34.2 °F 17.6 °F 42% 30.24 in 10.0 mi South 6.9 mph - N/A   Partly Cloudy
11:55 PM 39.2 °F 33.6 °F 17.6 °F 42% 30.24 in 10.0 mi South 8.1 mph - N/A   Partly Cloudy